This is the latest recevied weather packets stored in our database for station/object DL6DJ-15. If no packets are shown the sender has not sent any weather packets the latest 10 day(s).
| Time | Temp. | Humidity | Pressure | Rain* | Wind** | Luminosity | Snow |
|---|---|---|---|---|---|---|---|
| 1777948828 | 11.11° C | 66% | 1010.1 hPa | - | - | - | - |
| 1777948528 | 11.67° C | 66% | 1010.3 hPa | - | - | - | - |
| 1777948228 | 11.67° C | 64% | 1010.2 hPa | - | - | - | - |
| 1777947927 | 11.67° C | 65% | 1010.3 hPa | - | - | - | - |
| 1777947627 | 12.22° C | 63% | 1010.3 hPa | - | - | - | - |
| 1777947327 | 12.78° C | 62% | 1010.4 hPa | - | - | - | - |
| 1777947026 | 12.78° C | 62% | 1010.4 hPa | - | - | - | - |
| 1777946726 | 13.33° C | 61% | 1010.4 hPa | - | - | - | - |
| 1777946426 | 13.33° C | 60% | 1010.4 hPa | - | - | - | - |
| 1777946125 | 13.89° C | 59% | 1010.4 hPa | - | - | - | - |
| 1777945825 | 14.44° C | 58% | 1010.4 hPa | - | - | - | - |
| 1777945525 | 14.44° C | 56% | 1010.5 hPa | - | - | - | - |
| 1777945224 | 15° C | 57% | 1010.4 hPa | - | - | - | - |
| 1777944924 | 15° C | 56% | 1010.4 hPa | - | - | - | - |
| 1777944623 | 15.56° C | 55% | 1010.5 hPa | - | - | - | - |
| 1777944323 | 15.56° C | 54% | 1010.5 hPa | - | - | - | - |
| 1777944023 | 16.11° C | 53% | 1010.5 hPa | - | - | - | - |
| 1777943722 | 16.11° C | 52% | 1010.5 hPa | - | - | - | - |
| 1777943421 | 16.11° C | 52% | 1010.4 hPa | - | - | - | - |
| 1777943121 | 16.11° C | 51% | 1010.4 hPa | - | - | - | - |
| 1777942821 | 16.11° C | 50% | 1010.4 hPa | - | - | - | - |
| 1777942520 | 16.11° C | 50% | 1010.4 hPa | - | - | - | - |
| 1777942220 | 16.67° C | 49% | 1010.4 hPa | - | - | - | - |
| 1777941920 | 16.67° C | 49% | 1010.5 hPa | - | - | - | - |
| 1777941619 | 16.67° C | 50% | 1010.7 hPa | - | - | - | - |
* Rain since midnight (hover to see other rain measurements)
** Current wind speed in m/s (hover to see current wind gust speed)